Location: Augustenthal
(51.7167°N, 10.2833°E)
Time: 14:12:44
(UTC+00:00)

Cosmos 2366 rocket - Pass Details

Date: 18 May 2021
Orbit: 955 x 996 km, 82.9° (Epoch: 19 June)

Event Time Altitude Azimuth Distance (km) Brightness Sun altitude
Rises 21:12:17 0° 350° (N) 3,660 8.5 -13.6°
Reaches altitude 10° 21:14:47 10° 352° (N) 2,714 7.5 -13.8°
Maximum altitude 21:21:01 79° 79° (E) 995 4.0 -14.3°
Enters shadow 21:25:31 20° 165° (SSE) 2,079 5.1 -14.6°
